| time (UTC) | temp C | wind direction | speed KPH | gust KPH | rain 1hr cm | rain 24hr cm | rain mn cm | humidity % | barometer mb |
| 20260505030036 | 16 | 215 | 19.3 | 25.7 | 0.00 | 0.00 | 0.00 | 74 | |
| 20260505025026 | 17 | 222 | 20.9 | 29.0 | 0.00 | 0.00 | 0.00 | 72 | |
| 20260505024024 | 18 | 205 | 14.5 | 25.7 | 0.00 | 0.00 | 0.00 | 70 | |
| 20260505023032 | 18 | 206 | 14.5 | 17.7 | 0.00 | 0.00 | 0.00 | 69 | |
| 20260505022042 | 19 | 221 | 16.1 | 19.3 | 0.00 | 0.00 | 0.00 | 68 | |
| 20260505021030 | 20 | 231 | 16.1 | 19.3 | 0.00 | 0.00 | 0.00 | 68 | |
| 20260505020019 | 20 | 184 | 12.9 | 16.1 | 0.00 | 0.00 | 0.00 | 66 | |
| 20260505015107 | 21 | 238 | 14.5 | 16.1 | 0.00 | 0.00 | 0.00 | 65 | |
| 20260505014034 | 21 | 223 | 14.5 | 22.5 | 0.00 | 0.00 | 0.00 | 64 | |
| 20260505013023 | 21 | 225 | 16.1 | 20.9 | 0.00 | 0.00 | 0.00 | 63 | |
| 20260505012031 | 22 | 226 | 14.5 | 19.3 | 0.00 | 0.00 | 0.00 | 62 | |
| 20260505011020 | 23 | 210 | 9.7 | 14.5 | 0.00 | 0.00 | 0.00 | 60 | |
| 20260505010048 | 23 | 194 | 11.3 | 16.1 | 0.00 | 0.00 | 0.00 | 60 | |
| 20260505005028 | 23 | 230 | 11.3 | 16.1 | 0.00 | 0.00 | 0.00 | 59 | |
| 20260505004025 | 23 | 191 | 11.3 | 14.5 | 0.00 | 0.00 | 0.00 | 59 | |
| 20260505003033 | 23 | 225 | 9.7 | 17.7 | 0.00 | 0.00 | 0.00 | 58 | |
| 20260505002022 | 23 | 180 | 6.4 | 14.5 | 0.00 | 0.00 | 0.00 | 59 | |
| 20260505001030 | 23 | 192 | 9.7 | 12.9 | 0.00 | 0.00 | 0.00 | 59 | |
| 20260505000019 | 23 | 218 | 9.7 | 16.1 | 0.00 | 0.00 | 0.00 | 58 | |
| 20260504235029 | 23 | 206 | 11.3 | 14.5 | 0.00 | 0.00 | 0.00 | 58 | |
| 20260504234200 | 23 | 169 | 8.0 | 12.9 | 0.00 | 0.00 | 0.00 | 59 | |
| 20260504233045 | 23 | 196 | 8.0 | 11.3 | 0.00 | 0.00 | 0.00 | 58 | |
| 20260504232032 | 23 | 176 | 8.0 | 11.3 | 0.00 | 0.00 | 0.00 | 58 | |
| 20260504231021 | 23 | 174 | 4.8 | 8.0 | 0.00 | 0.00 | 0.00 | 60 | |
| 20260504230030 | 22 | 152 | 9.7 | 12.9 | 0.00 | 0.00 | 0.00 | 62 | |
| 20260504225030 | 22 | 147 | 11.3 | 16.1 | 0.00 | 0.00 | 0.00 | 61 | |
| 20260504224020 | 22 | 91 | 11.3 | 14.5 | 0.00 | 0.00 | 0.00 | 61 | |
| 20260504223034 | 22 | 131 | 9.7 | 14.5 | 0.00 | 0.00 | 0.00 | 60 | |
| 20260504222024 | 22 | 165 | 11.3 | 17.7 | 0.00 | 0.00 | 0.00 | 60 | |
| 20260504221052 | 22 | 99 | 8.0 | 14.5 | 0.00 | 0.00 | 0.00 | 60 | |
| 20260504220021 | 22 | 121 | 9.7 | 16.1 | 0.00 | 0.00 | 0.00 | 60 | |
| 20260504215051 | 21 | 140 | 11.3 | 14.5 | 0.00 | 0.00 | 0.00 | 61 | |
| 20260504214021 | 21 | 162 | 9.7 | 12.9 | 0.00 | 0.00 | 0.00 | 61 | |
| 20260504213026 | 21 | 162 | 9.7 | 14.5 | 0.00 | 0.00 | 0.00 | 63 | |
| 20260504212034 | 21 | 103 | 11.3 | 17.7 | 0.00 | 0.00 | 0.00 | 63 | |
| 20260504211023 | 21 | 147 | 8.0 | 12.9 | 0.00 | 0.00 | 0.00 | 63 | |
| 20260504210050 | 21 | 117 | 9.7 | 14.5 | 0.00 | 0.00 | 0.00 | 63 | |
| 20260504205020 | 20 | 115 | 9.7 | 16.1 | 0.00 | 0.00 | 0.00 | 63 | |
| 20260504204022 | 20 | 152 | 9.7 | 14.5 | 0.00 | 0.00 | 0.00 | 65 | |
| 20260504203055 | 20 | 170 | 8.0 | 12.9 | 0.00 | 0.00 | 0.00 | 65 | |
| 20260504202043 | 20 | 136 | 8.0 | 14.5 | 0.00 | 0.00 | 0.00 | 66 | |
| 20260504201032 | 19 | 159 | 9.7 | 12.9 | 0.00 | 0.00 | 0.00 | 67 | |
| 20260504200021 | 19 | 112 | 8.0 | 12.9 | 0.00 | 0.00 | 0.00 | 68 | |
| 20260504195030 | 18 | 146 | 9.7 | 11.3 | 0.00 | 0.00 | 0.00 | 69 | |
| 20260504194023 | 18 | 108 | 11.3 | 16.1 | 0.00 | 0.00 | 0.00 | 70 | |
| 20260504193027 | 18 | 124 | 9.7 | 14.5 | 0.00 | 0.00 | 0.00 | 69 | |
| 20260504192055 | 18 | 152 | 9.7 | 12.9 | 0.00 | 0.00 | 0.00 | 71 | |
| 20260504191023 | 17 | 128 | 11.3 | 14.5 | 0.00 | 0.00 | 0.00 | 71 | |
| 20260504190031 | 17 | 123 | 11.3 | 16.1 | 0.00 | 0.00 | 0.00 | 73 | |
| 20260504185034 | 17 | 136 | 8.0 | 12.9 | 0.00 | 0.00 | 0.00 | 75 | |
| 20260504184024 | 17 | 173 | 8.0 | 11.3 | 0.00 | 0.00 | 0.00 | 74 | |
| 20260504183037 | 16 | 154 | 9.7 | 14.5 | 0.00 | 0.00 | 0.00 | 76 | |
| 20260504182027 | 16 | 152 | 8.0 | 12.9 | 0.00 | 0.00 | 0.00 | 76 | |
| 20260504181036 | 16 | 136 | 11.3 | 14.5 | 0.00 | 0.00 | 0.00 | 77 | |
| 20260504180023 | 16 | 133 | 12.9 | 19.3 | 0.00 | 0.00 | 0.00 | 77 | |
| 20260504175031 | 16 | 148 | 9.7 | 14.5 | 0.00 | 0.00 | 0.00 | 77 | |
| 20260504174020 | 15 | 125 | 9.7 | 14.5 | 0.00 | 0.00 | 0.00 | 78 | |
| 20260504173048 | 15 | 111 | 9.7 | 12.9 | 0.00 | 0.00 | 0.00 | 78 | |
| 20260504172036 | 15 | 135 | 11.3 | 16.1 | 0.00 | 0.00 | 0.00 | 80 | |
| 20260504171108 | 15 | 140 | 11.3 | 16.1 | 0.00 | 0.00 | 0.00 | 79 |